Topeka Forbes, KS

5:04 PM CDT on July 20, 2017 (GMT -0500)
Forbes

Weather History for KFOE - May, 2014

Change the Weather History Date:

Saturday, May 3, 2014

  Actual Average Record
Temperature  
Mean Temperature 60 °F -  
Max Temperature 79 °F 70 °F 90 °F (1950)
Min Temperature 43 °F 47 °F 28 °F (2005)
Degree Days  
Heating Degree Days 5    
Growing Degree Days 10 (Base 50)    
Moisture  
Dew Point 42 °F    
Average Humidity 47    
Maximum Humidity 82    
Minimum Humidity 31    
Precipitation  
Precipitation 0.00 in - - ()
Sea Level Pressure  
Sea Level Pressure 29.88 in    
Wind  
Wind Speed 5 mph (ENE)    
Max Wind Speed 9 mph    
Max Gust Speed -    
Visibility 10 miles    
Events      
Averages and records for this station are not official NWS values.
T = Trace of Precipitation, MM = Missing Value Source: NWS Daily Summary

Daily Weather History Graph

Daily Weather History Graph

Search for Another Location

Airport or City:

Trip Planner

Search our weather history database for the weather conditions in past years. The results will help you decide how hot, cold, wet, or windy it might be!

Date:

Astronomy

May. 03, 2014 Rise Set
Actual Time 6:22 AM CDT 8:17 PM CDT
Civil Twilight 5:53 AM CDT 8:46 PM CDT
Nautical Twilight 5:18 AM CDT 9:21 PM CDT
Astronomical Twilight 4:40 AM CDT 9:59 PM CDT
Moon 9:53 AM CDT (5/3) No Moon Set
Length of Visible Light 14h 52m
Length of Day
13h 54m
Waxing Crescent, 20% of the Moon is Illuminated
May 3
Waxing Crescent
May 6
First Quarter
May 14
Full
May 21
Last Quarter
May 28
New

Hourly Weather History & Observations

Time (CDT) Temp. Windchill Dew Point Humidity Pressure Visibility Wind Dir Wind Speed Gust Speed Precip Events Conditions
12:53 AM 55.0 °F - 34.0 °F 45% 29.83 in 10.0 mi SSW 8.1 mph - N/A   Clear
1:53 AM 55.0 °F - 35.1 °F 47% 29.85 in 10.0 mi North 4.6 mph - N/A   Clear
2:53 AM 51.1 °F - 36.0 °F 56% 29.86 in 10.0 mi WNW 4.6 mph - N/A   Clear
3:53 AM 50.0 °F - 36.0 °F 59% 29.88 in 10.0 mi NW 4.6 mph - N/A   Clear
4:53 AM 52.0 °F - 36.0 °F 54% 29.88 in 10.0 mi NW 4.6 mph - N/A   Clear
5:53 AM 45.0 °F - 37.0 °F 74% 29.89 in 10.0 mi Calm Calm - N/A   Clear
6:53 AM 43.0 °F 40.3 °F 37.9 °F 82% 29.91 in 10.0 mi NNW 4.6 mph - N/A   Clear
7:53 AM 54.0 °F - 43.0 °F 66% 29.92 in 10.0 mi Calm Calm - N/A   Clear
8:53 AM 61.0 °F - 43.0 °F 52% 29.91 in 10.0 mi ENE 3.5 mph - N/A   Clear
9:53 AM 64.9 °F - 39.0 °F 39% 29.93 in 10.0 mi ENE 8.1 mph - N/A   Clear
10:53 AM 68.0 °F - 41.0 °F 37% 29.93 in 10.0 mi East 8.1 mph - N/A   Clear
11:53 AM 70.0 °F - 41.0 °F 35% 29.93 in 10.0 mi ESE 5.8 mph - N/A   Clear
12:53 PM 72.0 °F - 41.0 °F 33% 29.92 in 10.0 mi Variable 4.6 mph - N/A   Clear
1:53 PM 75.0 °F - 42.1 °F 31% 29.90 in 10.0 mi SE 8.1 mph - N/A   Clear
2:53 PM 77.0 °F - 44.1 °F 31% 29.89 in 10.0 mi Calm Calm - N/A   Clear
3:53 PM 77.0 °F - 45.0 °F 32% 29.89 in 10.0 mi Calm Calm - N/A   Clear
4:53 PM 77.0 °F - 46.0 °F 33% 29.87 in 10.0 mi SE 8.1 mph - N/A   Clear
5:53 PM 75.9 °F - 46.9 °F 36% 29.86 in 10.0 mi SE 9.2 mph - N/A   Clear
6:53 PM 75.9 °F - 46.0 °F 35% 29.85 in 10.0 mi ESE 9.2 mph - N/A   Clear
7:53 PM 71.1 °F - 46.9 °F 42% 29.84 in 10.0 mi ENE 4.6 mph - N/A   Clear
8:53 PM 68.0 °F - 46.0 °F 45% 29.85 in 10.0 mi ENE 4.6 mph - N/A   Clear
9:53 PM 66.0 °F - 46.0 °F 48% 29.86 in 10.0 mi ENE 9.2 mph - N/A   Clear
10:53 PM 64.0 °F - 46.9 °F 54% 29.87 in 10.0 mi ENE 4.6 mph - N/A   Clear
11:53 PM 61.0 °F - 46.9 °F 60% 29.87 in 10.0 mi ENE 6.9 mph - N/A   Clear